QPF
0.00 0.00 0.00 0.00 0.00 0.00 0.00 0.00 0.00 0.00 0.00 0.00 0.00 0.00 0.00 0.00 0.00 0.00 0.00 0.00 0.00 0.00 0.00 0.00 0.00 0.00 0.01 0.03 0.05 0.00 0.00 0.00 0.00 0.00 0.00 0.00 0.00 0.00 0.00 0.00 0.00 0.00 0.00
0.00 0.00 0.00 0.00 0.01 0.00 0.00 0.00 0.00 0.00 0.00 0.00 0.00 0.00 0.01 0.02 0.00 0.00 0.00 0.00 0.00 0.00 0.00 0.00 0.00 0.00 0.02 0.03 0.02 0.01 0.00 0.00 0.00 0.00 0.00 0.00 0.00 0.00 0.00 0.00 0.00 0.00 0.00
0.00 0.00 0.00 0.00 0.00 0.00 0.00 0.00 0.00 0.00 0.00 0.00 0.00 0.00 0.01 0.01 0.00 0.00 0.00 0.00 0.00 0.00 0.00 0.00 0.00 0.00 0.00 0.00 0.00 0.00 0.00 0.00 0.00 0.00 0.00 0.00 0.00 0.00 0.00 0.00 0.00 0.00 0.00
0.00 0.00 0.00 0.00 0.00 0.00 0.00 0.00 0.00 0.00 0.00 0.00 0.00 0.00 0.00 0.00 0.00 0.00 0.00 0.00 0.00 0.00 0.00 0.00 0.00 0.00 0.00 0.00 0.00 0.00 0.00 0.00 0.00 0.00 0.00 0.00 0.00 0.00 0.00 0.00 0.00 0.00 0.00
0.00 0.00 0.00 0.00 0.00 0.00 0.00 0.00 0.00 0.00 0.00 0.00 0.00 0.00 0.00 0.00 0.00 0.00 0.00 0.00 0.00 0.00 0.00 0.00 0.00 0.00 0.00 0.00 0.00 0.00 0.00 0.00 0.00 0.00 0.00 0.00 0.00 0.00 0.00 0.00 0.00 0.00 0.00
0.00 0.00 0.00 0.00 0.00 0.00 0.00 0.00 0.00 0.00 0.00 0.00 0.00 0.00 0.00 0.00 0.00 0.00 0.00 0.00 0.00 0.00 0.00 0.00 0.00 0.00 0.00 0.00 0.00 0.00 0.00 0.00 0.00 0.00 0.00 0.00 0.00 0.00 0.00 0.00 0.00 0.00 0.00
0.00 0.00 0.00 0.01 0.01 0.00 0.00 0.00 0.00 0.00 0.00 0.00 0.00 0.00 0.00 0.00 0.00 0.01 0.00 0.00 0.00 0.00 0.00 0.00 0.00 0.00 0.00 0.00 0.00 0.00 0.00 0.00 0.00 0.00 0.00 0.00 0.00 0.00 0.00 0.00 0.00 0.00 0.00
0.00 0.00 0.00 0.01 0.01 0.01 0.00 0.00 0.00 0.00 0.00 0.00 0.00 0.00 0.00 0.00 0.00 0.01 0.00 0.00 0.00 0.00 0.00 0.00 0.00 0.00 0.00 0.00 0.00 0.00 0.00 0.00 0.00 0.00 0.00 0.00 0.00 0.00 0.00 0.01 0.01 0.01 0.01
0.00 0.00 0.00 0.00 0.01 0.01 0.00 0.00 0.00 0.00 0.00 0.00 0.00 0.00 0.00 0.00 0.00 0.01 0.01 0.00 0.00 0.00 0.00 0.00 0.00 0.00 0.00 0.00 0.00 0.00 0.00 0.00 0.00 0.00 0.00 0.00 0.00 0.00 0.00 0.01 0.01 0.01 0.01
0.00 0.00 0.00 0.00 0.00 0.01 0.01 0.00 0.00 0.00 0.00 0.00 0.00 0.00 0.00 0.00 0.00 0.00 0.00 0.00 0.00 0.00 0.00 0.00 0.00 0.00 0.00 0.00 0.00 0.00 0.00 0.00 0.00 0.00 0.00 0.00 0.00 0.00 0.00 0.00 0.00 0.00 0.00
0.00 0.00 0.00 0.00 0.00 0.00 0.01 0.00 0.00 0.00 0.00 0.00 0.00 0.00 0.00 0.00 0.00 0.00 0.00 0.00 0.00 0.00 0.00 0.00 0.00 0.00 0.00 0.00 0.00 0.00 0.00 0.00 0.00 0.00 0.00 0.00 0.00 0.00 0.00 0.00 0.00 0.00 0.00
0.00 0.00 0.00 0.00 0.00 0.00 0.00 0.00 0.00 0.00 0.00 0.00 0.00 0.00 0.00 0.00 0.00 0.00 0.00 0.00 0.00 0.00 0.00 0.00 0.00 0.00 0.00 0.00 0.00 0.00 0.00 0.00 0.00 0.00 0.00 0.00 0.00 0.00 0.00 0.00 0.00 0.00 0.00
0.00 0.00 0.00 0.00 0.00 0.00 0.00 0.00 0.00 0.00 0.00 0.00 0.00 0.00 0.00 0.00 0.00 0.00 0.00 0.00 0.00 0.00 0.00 0.00 0.00 0.00 0.00 0.00 0.00 0.00 0.00 0.00 0.00 0.00 0.00 0.00 0.00 0.00 0.00 0.00 0.00 0.00 0.00
0.00 0.00 0.00 0.00 0.00 0.00 0.00 0.00 0.00 0.00 0.00 0.00 0.00 0.00 0.00 0.00 0.00 0.00 0.00 0.00 0.00 0.00 0.00 0.00 0.00 0.00 0.00 0.00 0.00 0.00 0.00 0.00 0.00 0.00 0.00 0.00 0.00 0.00 0.00 0.00 0.00 0.00 0.00
0.00 0.00 0.00 0.00 0.00 0.00 0.00 0.00 0.00 0.00 0.00 0.00 0.00 0.00 0.00 0.00 0.00 0.00 0.00 0.00 0.00 0.00 0.00 0.00 0.00 0.00 0.00 0.00 0.00 0.00 0.00 0.00 0.00 0.00 0.00 0.00 0.00 0.00 0.00 0.00 0.00 0.00 0.00
0.00 0.00 0.00 0.00 0.00 0.00 0.00 0.00 0.00 0.00 0.00 0.00 0.00 0.00 0.00 0.00 0.00 0.00 0.00 0.00 0.00 0.00 0.00 0.00 0.00 0.00 0.00 0.00 0.00 0.00 0.00 0.00 0.00 0.00 0.00 0.00 0.00 0.00 0.00 0.00 0.00 0.00 0.00
0.00 0.00 0.00 0.00 0.00 0.00 0.00 0.00 0.00 0.00 0.00 0.00 0.00 0.00 0.00 0.00 0.00 0.00 0.00 0.00 0.00 0.00 0.00 0.00 0.00 0.00 0.00 0.00 0.00 0.00 0.00 0.00 0.00 0.00 0.00 0.00 0.00 0.00 0.00 0.00 0.00 0.00 0.00
0.00 0.00 0.00 0.00 0.00 0.00 0.00 0.00 0.00 0.00 0.00 0.00 0.00 0.00 0.00 0.00 0.00 0.00 0.00 0.00 0.00 0.00 0.00 0.00 0.00 0.00 0.00 0.00 0.00 0.00 0.00 0.00 0.00 0.00 0.00 0.00 0.00 0.00 0.00 0.00 0.00 0.00 0.00
0.00 0.00 0.00 0.00 0.00 0.00 0.00 0.00 0.00 0.00 0.00 0.00 0.00 0.00 0.00 0.00 0.00 0.00 0.00 0.00 0.00 0.00 0.00 0.00 0.00 0.00 0.00 0.00 0.00 0.00 0.00 0.00 0.00 0.00 0.00 0.00 0.00 0.00 0.00 0.00 0.00 0.00 0.00
0.00 0.00 0.00 0.00 0.00 0.00 0.00 0.00 0.00 0.00 0.01 0.01 0.00 0.00 0.00 0.00 0.00 0.00 0.00 0.00 0.00 0.00 0.00 0.00 0.00 0.00 0.00 0.00 0.00 0.00 0.00 0.00 0.00 0.00 0.00 0.00 0.00 0.00 0.00 0.00 0.00 0.00 0.00
0.00 0.00 0.00 0.00 0.00 0.00 0.00 0.00 0.00 0.02 0.03 0.02 0.02 0.00 0.00 0.00 0.00 0.00 0.00 0.00 0.00 0.00 0.00 0.00 0.00 0.00 0.00 0.00 0.00 0.00 0.00 0.00 0.00 0.00 0.00 0.00 0.00 0.00 0.00 0.00 0.00 0.00 0.00
0.00 0.00 0.00 0.00 0.00 0.00 0.00 0.00 0.00 0.02 0.01 0.00 0.02 0.00 0.00 0.00 0.00 0.00 0.00 0.00 0.00 0.00 0.00 0.00 0.00 0.00 0.00 0.00 0.00 0.00 0.00 0.00 0.00 0.00 0.00 0.00 0.00 0.00 0.00 0.00 0.00 0.00 0.00
0.00 0.00 0.00 0.00 0.00 0.00 0.00 0.00 0.00 0.01 0.01 0.00 0.01 0.00 0.00 0.00 0.00 0.00 0.00 0.00 0.00 0.00 0.00 0.00 0.00 0.00 0.00 0.00 0.00 0.00 0.00 0.00 0.00 0.00 0.00 0.00 0.00 0.00 0.00 0.00 0.00 0.00 0.00
0.00 0.00 0.00 0.00 0.00 0.00 0.00 0.00 0.00 0.00 0.01 0.02 0.03 0.00 0.00 0.00 0.00 0.00 0.00 0.00 0.00 0.00 0.00 0.00 0.00 0.00 0.00 0.00 0.00 0.00 0.00 0.00 0.00 0.00 0.00 0.00 0.00 0.00 0.00 0.00 0.00 0.00 0.00
0.00 0.00 0.00 0.00 0.00 0.00 0.00 0.00 0.00 0.01 0.00 0.00 0.00 0.00 0.00 0.00 0.00 0.00 0.00 0.00 0.00 0.00 0.00 0.00 0.00 0.00 0.00 0.00 0.00 0.00 0.00 0.00 0.00 0.00 0.00 0.00 0.00 0.00 0.00 0.00 0.00 0.00 0.00
0.00 0.00 0.00 0.00 0.00 0.00 0.00 0.00 0.01 0.01 0.01 0.02 0.00 0.00 0.00 0.00 0.00 0.00 0.00 0.00 0.00 0.00 0.00 0.00 0.00 0.00 0.00 0.00 0.00 0.00 0.00 0.00 0.00 0.00 0.00 0.00 0.00 0.00 0.00 0.00 0.00 0.00 0.00
MSLP
1007.45 1008.67 1009.65 1010.08 1010.54 1011.00 1011.35 1011.65 1011.78 1012.05 1012.17 1012.14 1012.23 1012.57 1012.84 1013.06 1013.34 1013.55 1013.77 1013.88 1013.96 1014.01 1014.03 1014.00 1014.04 1014.12 1013.95 1014.00 1014.16 1014.39 1014.69 1014.87 1014.96 1015.05 1015.04 1015.03 1014.93 1014.88 1014.83 1014.78 1014.68 1014.33 1014.65
1007.17 1008.38 1009.50 1010.13 1010.60 1011.12 1011.51 1011.77 1012.11 1012.29 1012.48 1012.53 1012.50 1012.57 1012.90 1013.14 1013.39 1013.68 1013.90 1014.05 1014.15 1014.26 1014.21 1014.24 1014.36 1014.49 1014.41 1014.54 1014.57 1014.66 1014.87 1015.01 1015.05 1015.15 1015.10 1015.07 1015.01 1014.92 1014.85 1014.92 1014.96 1014.70 1014.75
1007.11 1008.17 1009.40 1010.03 1010.53 1011.08 1011.58 1011.98 1012.25 1012.52 1012.63 1012.74 1012.79 1012.82 1012.98 1013.34 1013.62 1013.77 1013.99 1014.21 1014.39 1014.45 1014.46 1014.55 1014.70 1014.80 1014.80 1014.80 1014.80 1014.84 1014.97 1015.10 1015.17 1015.18 1014.96 1014.42 1014.26 1014.83 1014.94 1014.90 1014.93 1014.86 1014.87
1007.15 1008.18 1009.00 1010.26 1010.77 1011.19 1011.67 1012.04 1012.34 1012.57 1012.81 1012.88 1013.06 1013.16 1013.27 1013.42 1013.70 1013.86 1014.16 1014.42 1014.57 1014.66 1014.68 1014.77 1014.91 1015.03 1015.07 1015.08 1015.05 1014.99 1015.03 1015.15 1015.23 1015.04 1014.36 1014.21 1014.30 1014.77 1014.96 1014.95 1014.84 1014.74 1014.76
1007.34 1007.95 1008.83 1010.22 1010.87 1011.34 1011.87 1012.25 1012.42 1012.65 1012.85 1013.14 1013.25 1013.42 1013.52 1013.56 1013.72 1013.98 1014.24 1014.43 1014.66 1014.80 1014.91 1015.02 1015.06 1015.15 1015.21 1015.29 1015.24 1015.14 1015.07 1015.06 1015.16 1014.90 1014.24 1014.37 1014.73 1014.86 1014.99 1014.94 1014.79 1014.79 1014.67
1007.38 1007.74 1009.63 1010.37 1011.00 1011.47 1011.92 1012.43 1012.69 1012.81 1012.99 1013.10 1013.34 1013.59 1013.79 1013.84 1013.93 1014.07 1014.26 1014.55 1014.73 1014.94 1015.06 1015.19 1015.19 1015.20 1015.24 1015.28 1015.33 1015.23 1015.17 1015.21 1015.03 1014.22 1014.26 1014.32 1014.43 1014.88 1014.98 1014.91 1014.83 1014.82 1014.66
1007.48 1007.94 1009.52 1010.42 1011.12 1011.63 1011.99 1012.43 1012.79 1012.99 1013.17 1013.35 1013.42 1013.68 1013.92 1014.06 1014.11 1014.17 1014.25 1014.51 1014.94 1015.08 1015.18 1015.19 1015.16 1015.21 1015.26 1015.30 1015.23 1015.31 1015.30 1015.23 1014.92 1014.07 1014.04 1014.18 1014.67 1014.90 1014.92 1014.70 1014.60 1014.66 1014.45
1007.52 1008.09 1009.37 1010.59 1011.15 1011.74 1012.24 1012.51 1012.79 1013.05 1013.26 1013.46 1013.66 1013.79 1014.02 1014.23 1014.13 1013.85 1014.09 1014.61 1014.99 1015.24 1015.30 1015.27 1015.22 1015.31 1015.30 1015.30 1015.28 1015.31 1015.41 1015.31 1014.61 1014.21 1014.19 1014.20 1014.69 1014.90 1014.85 1014.60 1014.46 1014.52 1014.30
1007.65 1008.26 1008.92 1010.21 1011.10 1011.61 1012.17 1012.63 1012.86 1013.09 1013.33 1013.47 1013.71 1013.90 1014.07 1014.35 1014.30 1014.09 1014.41 1014.75 1015.01 1015.23 1015.36 1015.38 1015.29 1015.33 1015.32 1015.40 1015.47 1015.40 1015.31 1015.21 1014.79 1014.05 1014.27 1014.23 1014.92 1014.93 1014.67 1014.56 1014.54 1014.42 1014.35
1007.77 1008.26 1008.73 1009.41 1010.58 1011.14 1011.88 1012.55 1012.84 1013.09 1013.38 1013.54 1013.71 1013.93 1014.23 1014.44 1014.53 1014.49 1014.58 1014.90 1015.13 1015.27 1015.37 1015.46 1015.52 1015.50 1015.49 1015.53 1015.58 1015.50 1015.24 1015.05 1014.51 1014.32 1014.19 1015.01 1015.13 1015.07 1014.76 1014.65 1014.59 1014.44 1014.44
1007.84 1008.24 1008.53 1008.98 1009.76 1010.34 1011.11 1012.10 1012.67 1013.04 1013.30 1013.61 1013.74 1013.92 1014.11 1013.78 1014.13 1014.48 1014.82 1015.04 1015.16 1015.34 1015.51 1015.64 1015.65 1015.63 1015.60 1015.54 1015.52 1015.46 1015.11 1014.51 1014.59 1014.55 1014.58 1015.39 1015.39 1015.02 1014.78 1014.75 1014.72 1014.78 1014.67
1007.63 1008.00 1008.45 1008.69 1009.12 1009.89 1010.54 1011.46 1011.90 1012.42 1013.05 1013.19 1013.21 1013.58 1013.30 1013.26 1013.65 1013.80 1014.72 1015.04 1015.22 1015.44 1015.66 1015.71 1015.72 1015.57 1015.39 1014.92 1014.98 1015.09 1014.78 1014.95 1014.80 1014.88 1015.35 1015.81 1015.52 1015.07 1015.01 1015.18 1015.03 1015.04 1015.05
1006.99 1007.57 1008.11 1008.52 1008.81 1009.33 1010.19 1011.04 1011.18 1011.25 1012.25 1012.23 1012.51 1012.78 1013.03 1013.28 1013.95 1014.10 1014.34 1014.76 1014.99 1015.31 1015.05 1015.48 1015.34 1015.34 1015.50 1015.46 1015.28 1015.01 1015.25 1015.22 1015.01 1014.97 1016.00 1016.09 1015.46 1015.38 1015.46 1015.55 1015.38 1015.51 1015.38
1006.43 1007.03 1007.81 1008.28 1008.76 1009.19 1009.91 1010.41 1010.64 1010.72 1011.10 1011.65 1012.21 1012.57 1012.91 1013.19 1013.52 1013.56 1013.55 1014.20 1014.57 1014.83 1014.98 1015.17 1015.26 1015.52 1015.58 1015.53 1015.45 1015.31 1015.31 1015.34 1015.30 1015.36 1016.33 1016.47 1015.99 1016.03 1015.96 1015.86 1015.95 1015.95 1015.73
1006.12 1006.65 1007.19 1007.95 1008.54 1009.27 1009.44 1010.07 1010.39 1010.71 1010.35 1011.37 1011.75 1012.17 1012.48 1012.81 1013.20 1013.16 1013.67 1014.33 1014.82 1014.87 1015.10 1015.22 1015.44 1015.46 1015.57 1015.68 1015.55 1015.47 1015.45 1015.41 1015.48 1015.57 1016.31 1016.90 1016.49 1016.61 1016.53 1016.32 1016.40 1016.41 1016.19
1005.78 1006.20 1006.82 1007.44 1008.09 1008.81 1009.14 1009.54 1009.90 1010.31 1010.15 1010.83 1011.60 1011.95 1012.16 1012.43 1012.72 1013.27 1014.19 1014.80 1014.81 1014.96 1015.31 1015.58 1015.75 1015.84 1015.72 1015.71 1015.76 1015.76 1015.67 1015.68 1015.77 1015.88 1015.90 1017.08 1017.04 1017.03 1017.01 1016.78 1016.85 1016.76 1016.61
1005.13 1005.51 1006.01 1006.87 1007.60 1008.26 1008.83 1009.00 1009.60 1009.66 1009.86 1010.67 1011.53 1011.71 1012.07 1012.34 1013.18 1014.02 1014.64 1014.95 1015.04 1015.31 1015.58 1015.80 1015.89 1016.03 1015.98 1015.85 1015.81 1015.84 1015.90 1015.90 1016.06 1016.01 1016.20 1016.39 1017.21 1017.27 1017.37 1017.27 1017.19 1017.03 1016.88
1004.78 1004.94 1005.40 1006.16 1006.92 1007.74 1008.87 1008.59 1008.93 1009.11 1009.50 1010.69 1011.46 1011.72 1012.09 1012.68 1013.46 1014.34 1014.92 1015.12 1015.18 1015.60 1015.82 1016.05 1016.26 1016.24 1016.20 1016.11 1016.02 1015.84 1015.96 1016.02 1016.17 1016.19 1016.41 1016.55 1016.90 1016.78 1017.36 1017.35 1017.43 1017.32 1017.18
1004.22 1004.68 1004.97 1005.83 1006.40 1006.72 1007.76 1008.17 1008.75 1009.39 1009.90 1010.54 1011.11 1011.63 1012.45 1013.55 1014.05 1014.46 1015.07 1015.20 1015.37 1015.77 1016.05 1016.30 1016.55 1016.64 1016.51 1016.51 1016.26 1015.99 1015.99 1016.09 1016.24 1016.36 1016.35 1016.80 1017.10 1017.14 1017.21 1017.19 1017.26 1017.11 1017.12
1003.65 1004.12 1004.59 1005.13 1005.93 1006.33 1006.83 1007.61 1008.64 1009.48 1010.13 1010.68 1011.24 1012.24 1013.17 1013.83 1014.36 1014.65 1014.99 1015.15 1015.51 1015.97 1016.30 1016.57 1016.71 1016.86 1016.98 1016.85 1016.41 1015.99 1016.16 1016.16 1016.25 1016.40 1016.35 1016.62 1016.84 1017.19 1017.25 1017.35 1017.23 1016.95 1016.86
1003.12 1003.37 1003.91 1004.24 1005.00 1005.50 1006.12 1006.99 1008.36 1009.41 1010.54 1011.35 1012.16 1012.55 1013.27 1013.87 1014.30 1014.47 1014.73 1015.33 1015.62 1016.10 1016.57 1016.72 1016.86 1016.99 1017.21 1017.09 1016.43 1016.12 1015.96 1016.25 1016.24 1016.34 1016.30 1016.47 1016.56 1017.00 1017.10 1017.12 1017.12 1017.04 1016.81
1002.70 1003.06 1003.48 1003.70 1004.35 1004.96 1005.54 1007.04 1008.16 1009.55 1010.90 1011.92 1012.73 1012.95 1013.44 1013.89 1014.31 1014.61 1014.99 1015.47 1015.94 1016.46 1016.84 1017.11 1017.11 1017.22 1017.46 1017.61 1017.35 1016.74 1016.12 1016.02 1016.06 1016.21 1016.29 1016.45 1016.75 1016.84 1016.93 1017.06 1017.15 1017.06 1016.88
1002.10 1002.39 1002.78 1003.18 1003.68 1004.54 1005.57 1007.23 1008.86 1010.43 1011.55 1012.35 1012.72 1013.41 1013.67 1014.01 1014.45 1014.82 1015.20 1015.63 1016.15 1016.61 1017.12 1017.42 1017.57 1017.63 1017.57 1017.90 1017.99 1017.61 1016.97 1016.63 1016.63 1016.00 1016.39 1016.58 1016.75 1016.69 1016.94 1016.98 1016.99 1016.89 1016.79
1001.21 1001.75 1002.37 1002.93 1003.48 1004.35 1005.42 1006.81 1008.06 1008.93 1010.23 1011.34 1012.15 1013.18 1013.75 1014.20 1014.63 1015.04 1015.52 1015.84 1016.36 1016.90 1017.33 1017.64 1017.90 1018.06 1017.99 1018.05 1018.07 1018.08 1018.12 1018.11 1017.74 1017.02 1016.52 1016.67 1016.60 1016.84 1016.73 1016.58 1016.60 1016.68 1016.59
1000.57 1001.05 1002.02 1002.89 1003.53 1004.13 1005.20 1006.67 1007.84 1008.89 1009.83 1010.97 1012.28 1013.14 1013.86 1014.46 1014.79 1015.32 1015.74 1016.21 1016.59 1017.07 1017.49 1017.75 1018.04 1018.25 1018.51 1018.39 1018.40 1018.45 1018.20 1018.19 1018.11 1018.05 1017.23 1016.87 1016.85 1016.66 1016.59 1016.36 1016.44 1016.34 1016.33
1000.39 1000.55 1001.46 1002.61 1003.44 1003.97 1005.40 1006.59 1007.27 1008.06 1009.26 1010.91 1012.30 1013.09 1013.94 1014.66 1015.01 1015.43 1015.89 1016.41 1016.82 1017.29 1017.69 1017.94 1018.20 1018.39 1018.72 1018.83 1018.79 1018.68 1018.56 1018.44 1018.20 1018.20 1017.81 1017.37 1017.08 1016.67 1016.39 1016.25 1016.00 1016.08 1015.87
Thickness
5774 5769 5762 5759 5755 5752 5750 5748 5747 5745 5744 5744 5743 5739 5737 5735 5732 5730 5728 5727 5726 5725 5725 5726 5726 5725 5727 5727 5726 5724 5721 5720 5719 5720 5721 5721 5722 5722 5722 5721 5722 5724 5721
5777 5766 5759 5755 5752 5748 5745 5744 5742 5741 5739 5738 5738 5738 5734 5732 5729 5727 5724 5723 5722 5721 5721 5721 5721 5720 5721 5721 5720 5720 5717 5716 5716 5716 5717 5717 5717 5718 5718 5717 5716 5718 5717
5773 5765 5756 5752 5749 5745 5741 5738 5737 5735 5735 5734 5733 5732 5732 5728 5725 5724 5721 5720 5718 5718 5718 5716 5715 5715 5715 5716 5716 5716 5715 5713 5713 5713 5715 5718 5719 5715 5714 5714 5713 5713 5712
5770 5761 5755 5746 5743 5740 5736 5734 5733 5731 5729 5729 5727 5727 5725 5725 5722 5720 5718 5716 5715 5714 5714 5712 5711 5710 5710 5710 5711 5713 5712 5711 5709 5711 5716 5716 5715 5712 5709 5709 5709 5709 5708
5765 5760 5754 5743 5738 5734 5730 5728 5728 5727 5725 5722 5721 5720 5720 5720 5719 5717 5715 5713 5711 5710 5709 5708 5708 5708 5707 5705 5706 5708 5708 5709 5706 5708 5712 5711 5708 5707 5705 5705 5705 5705 5706
5762 5759 5744 5738 5733 5729 5726 5723 5721 5721 5720 5720 5717 5715 5714 5714 5714 5713 5712 5710 5709 5707 5706 5705 5705 5705 5704 5703 5702 5703 5703 5703 5704 5709 5708 5707 5705 5702 5701 5700 5701 5699 5700
5758 5755 5741 5735 5730 5725 5723 5720 5717 5716 5714 5713 5713 5711 5710 5709 5709 5709 5709 5707 5703 5703 5702 5702 5702 5702 5701 5700 5701 5699 5698 5699 5700 5705 5704 5702 5699 5697 5696 5697 5697 5695 5697
5753 5750 5739 5730 5725 5721 5717 5716 5714 5713 5711 5709 5707 5707 5705 5704 5706 5709 5707 5703 5700 5698 5698 5699 5699 5697 5698 5697 5697 5696 5694 5694 5699 5700 5699 5698 5694 5692 5692 5693 5694 5692 5692
5749 5744 5739 5728 5721 5717 5713 5710 5710 5709 5707 5707 5705 5703 5702 5700 5701 5703 5701 5699 5697 5695 5694 5694 5695 5694 5694 5693 5692 5692 5691 5690 5692 5696 5694 5693 5688 5687 5688 5689 5688 5686 5685
5743 5740 5737 5730 5721 5717 5712 5707 5706 5705 5703 5702 5701 5700 5698 5696 5696 5697 5697 5695 5692 5692 5691 5690 5690 5689 5689 5688 5687 5686 5687 5686 5687 5688 5689 5682 5681 5680 5683 5683 5681 5681 5681
5735 5735 5734 5731 5724 5720 5715 5708 5704 5702 5700 5698 5697 5696 5695 5697 5695 5693 5692 5691 5690 5688 5686 5685 5684 5684 5684 5684 5683 5681 5683 5682 5681 5680 5681 5675 5673 5676 5677 5675 5674 5673 5673
5728 5731 5731 5729 5726 5720 5716 5709 5707 5702 5698 5697 5698 5695 5697 5697 5694 5694 5688 5687 5685 5683 5681 5680 5679 5680 5680 5683 5681 5680 5679 5676 5676 5674 5671 5667 5667 5670 5670 5666 5667 5666 5664
5731 5730 5729 5726 5724 5720 5714 5709 5708 5708 5700 5701 5699 5698 5695 5693 5687 5687 5685 5682 5681 5679 5679 5676 5676 5675 5674 5674 5674 5675 5671 5670 5670 5669 5662 5659 5663 5662 5661 5658 5658 5655 5654
5728 5728 5725 5723 5719 5717 5710 5709 5708 5709 5706 5702 5698 5695 5692 5689 5686 5685 5686 5681 5677 5675 5674 5672 5671 5669 5668 5667 5667 5668 5666 5664 5663 5661 5654 5651 5653 5650 5650 5649 5646 5644 5644
5723 5723 5723 5719 5716 5710 5711 5706 5706 5703 5707 5700 5696 5692 5690 5687 5684 5684 5679 5674 5669 5669 5667 5666 5664 5664 5662 5660 5660 5660 5659 5657 5655 5653 5647 5642 5644 5640 5639 5639 5635 5633 5633
5720 5719 5718 5716 5714 5709 5708 5706 5704 5701 5704 5699 5693 5689 5688 5686 5682 5678 5671 5665 5663 5663 5659 5657 5655 5654 5655 5654 5653 5651 5651 5649 5646 5644 5643 5633 5633 5631 5628 5628 5625 5623 5623
5719 5718 5716 5714 5712 5708 5704 5705 5700 5701 5699 5694 5687 5685 5683 5681 5674 5667 5662 5659 5657 5654 5651 5649 5648 5647 5646 5647 5646 5644 5642 5640 5637 5636 5634 5631 5624 5622 5618 5617 5615 5614 5613
5716 5715 5715 5714 5710 5705 5696 5702 5700 5699 5696 5688 5681 5680 5677 5672 5666 5659 5655 5652 5650 5645 5643 5641 5639 5639 5638 5638 5637 5637 5634 5632 5629 5628 5625 5621 5617 5616 5610 5608 5605 5604 5603
5715 5712 5711 5708 5705 5706 5700 5698 5695 5691 5686 5682 5678 5674 5668 5659 5655 5652 5647 5645 5642 5638 5635 5633 5630 5629 5629 5628 5628 5629 5627 5625 5622 5619 5617 5612 5607 5604 5602 5600 5596 5597 5594
5713 5711 5707 5707 5703 5703 5701 5696 5689 5682 5679 5675 5670 5662 5655 5650 5646 5643 5640 5638 5634 5630 5627 5625 5623 5621 5618 5618 5620 5622 5618 5617 5614 5611 5609 5604 5600 5594 5591 5588 5587 5587 5586
5710 5710 5707 5705 5704 5701 5697 5691 5682 5674 5668 5663 5657 5654 5649 5644 5640 5637 5635 5630 5626 5622 5619 5617 5616 5613 5610 5608 5612 5613 5612 5608 5606 5603 5600 5596 5593 5586 5582 5579 5576 5575 5574
5702 5703 5702 5702 5699 5698 5695 5686 5677 5668 5659 5653 5646 5645 5641 5637 5632 5629 5625 5621 5617 5612 5609 5607 5606 5604 5600 5596 5596 5599 5602 5603 5598 5594 5590 5585 5579 5576 5572 5567 5564 5561 5560
5694 5698 5699 5699 5697 5694 5688 5676 5664 5653 5645 5641 5640 5634 5632 5628 5624 5619 5616 5613 5608 5604 5599 5596 5594 5592 5592 5586 5582 5584 5588 5588 5582 5586 5578 5572 5567 5564 5558 5554 5550 5546 5544
5691 5693 5694 5693 5690 5685 5681 5672 5663 5658 5648 5643 5638 5630 5625 5619 5615 5610 5606 5603 5599 5593 5589 5586 5583 5579 5579 5575 5574 5569 5565 5562 5562 5566 5568 5562 5558 5550 5547 5544 5538 5532 5528
5686 5685 5685 5682 5680 5678 5675 5666 5657 5651 5647 5639 5629 5622 5616 5610 5607 5601 5597 5592 5589 5584 5580 5576 5572 5569 5563 5562 5559 5555 5556 5552 5548 5543 5547 5548 5544 5541 5537 5535 5530 5526 5520
5676 5680 5678 5674 5671 5672 5663 5656 5654 5651 5644 5629 5619 5614 5608 5601 5597 5593 5588 5583 5579 5574 5569 5566 5562 5557 5552 5548 5546 5544 5541 5538 5536 5532 5532 5531 5529 5529 5525 5520 5517 5511 5507